When you browse on this site, cookies collect data to enhance your experience and personalize the content and advertising you see.
Visit our Privacy Policy to learn more. By continuing to use the site, you agree to this use of cookies and data.
  • în România
  • Lista ţărilor
  • Pe 7 zile
  • Temperatura apei
  • Hartă satelitară
  • Meteo pe hartă
  • Widget-uri
  • user-avatar
    Intrare

    Meteo pe oră la Luanda

    Astăzi, 18 Ianuarie, Vineri

    Timp Temperatura Precipitaţii Vânt Presiune Umiditate
    00:00 +28°C° 0 mm 3 m/s 754 mmHg 81%
    01:00 +28°C° 0 mm 2 m/s 754 mmHg 84%
    02:00 +28°C° 0 mm 2 m/s 753 mmHg 84%
    03:00 +28°C° 0 mm 2 m/s 753 mmHg 85%
    04:00 +27°C° 0 mm 2 m/s 753 mmHg 85%
    05:00 +28°C° 0 mm 2 m/s 753 mmHg 84%
    06:00 +28°C° 0 mm 2 m/s 754 mmHg 83%
    07:00 +28°C° 0 mm 2 m/s 754 mmHg 83%
    08:00 +29°C° 0 mm 2 m/s 754 mmHg 78%
    09:00 +30°C° 0 mm 2 m/s 754 mmHg 72%
    10:00 +31°C° 0 mm 1 m/s 755 mmHg 67%
    11:00 +31°C° 0 mm 2 m/s 754 mmHg 65%
    12:00 +31°C° 0 mm 2 m/s 753 mmHg 63%
    13:00 +32°C° 0 mm 2 m/s 753 mmHg 61%
    14:00 +33°C° 0 mm 3 m/s 752 mmHg 60%
    15:00 +34°C° 0 mm 4 m/s 752 mmHg 58%
    16:00 +34°C° 0 mm 5 m/s 751 mmHg 57%
    17:00 +33°C° 0 mm 4 m/s 752 mmHg 63%
    18:00 +30°C° 0 mm 4 m/s 752 mmHg 69%
    19:00 +29°C° 0 mm 4 m/s 752 mmHg 75%
    20:00 +29°C° 0 mm 4 m/s 753 mmHg 76%
    21:00 +29°C° 0 mm 3 m/s 754 mmHg 77%
    22:00 +28°C° 0 mm 3 m/s 755 mmHg 78%
    23:00 +28°C° 0.1 mm 3 m/s 755 mmHg 79%

    Mâine, 19 Ianuarie, Sâmbătă

    Timp Temperatura Precipitaţii Vânt Presiune Umiditate
    00:00 +28°C° 0.1 mm 3 m/s 755 mmHg 81%
    01:00 +28°C° 0.1 mm 3 m/s 754 mmHg 82%
    02:00 +27°C° 1.1 mm 2 m/s 754 mmHg 83%
    03:00 +27°C° 1.1 mm 2 m/s 754 mmHg 84%
    04:00 +27°C° 1.1 mm 2 m/s 754 mmHg 85%
    05:00 +27°C° 0.9 mm 2 m/s 754 mmHg 85%
    06:00 +27°C° 0.9 mm 2 m/s 754 mmHg 85%
    07:00 +27°C° 0.9 mm 2 m/s 755 mmHg 85%
    08:00 +28°C° 0.7 mm 1 m/s 755 mmHg 81%
    09:00 +28°C° 0.7 mm 1 m/s 755 mmHg 77%
    10:00 +29°C° 0.7 mm 1 m/s 755 mmHg 73%
    11:00 +30°C° 0.6 mm 1 m/s 755 mmHg 69%
    12:00 +31°C° 0.6 mm 2 m/s 755 mmHg 65%
    13:00 +31°C° 0.6 mm 3 m/s 754 mmHg 61%
    14:00 +31°C° 0.1 mm 3 m/s 754 mmHg 61%
    15:00 +31°C° 0.1 mm 3 m/s 754 mmHg 62%
    16:00 +31°C° 0.1 mm 3 m/s 753 mmHg 62%
    17:00 +30°C° 0 mm 2 m/s 753 mmHg 66%
    18:00 +29°C° 0 mm 2 m/s 754 mmHg 70%
    19:00 +29°C° 0 mm 2 m/s 754 mmHg 74%
    20:00 +28°C° 0 mm 1 m/s 754 mmHg 76%
    21:00 +28°C° 0 mm 1 m/s 755 mmHg 78%
    22:00 +28°C° 0 mm 1 m/s 755 mmHg 80%
    23:00 +28°C° 0 mm 1 m/s 755 mmHg 81%

    Poimâine, 20 Ianuarie, Duminică

    Timp Temperatura Precipitaţii Vânt Presiune Umiditate
    00:00 +25°C° 0 mm 0 m/s 755 mmHg 82%
    01:00 +25°C° 0 mm 0 m/s 754 mmHg 83%
    02:00 +25°C° 0 mm 0 m/s 754 mmHg 84%
    03:00 +27°C° 0 mm 1 m/s 754 mmHg 84%
    04:00 +27°C° 0 mm 1 m/s 753 mmHg 85%
    05:00 +27°C° 0 mm 1 m/s 754 mmHg 85%
    06:00 +27°C° 0 mm 1 m/s 754 mmHg 85%
    07:00 +27°C° 0 mm 2 m/s 754 mmHg 84%
    08:00 +28°C° 0 mm 1 m/s 755 mmHg 79%
    09:00 +29°C° 0 mm 1 m/s 755 mmHg 73%
    10:00 +30°C° 0 mm 1 m/s 756 mmHg 67%
    11:00 +31°C° 0 mm 2 m/s 755 mmHg 64%
    12:00 +32°C° 0 mm 2 m/s 755 mmHg 62%
    13:00 +32°C° 0 mm 2 m/s 754 mmHg 59%
    14:00 +33°C° 0 mm 3 m/s 753 mmHg 59%
    15:00 +33°C° 0 mm 4 m/s 753 mmHg 59%
    16:00 +33°C° 0 mm 5 m/s 752 mmHg 59%
    17:00 +32°C° 0 mm 4 m/s 752 mmHg 64%
    18:00 +30°C° 0 mm 4 m/s 753 mmHg 69%
    19:00 +29°C° 0 mm 4 m/s 753 mmHg 74%
    20:00 +28°C° 0 mm 4 m/s 754 mmHg 76%
    21:00 +28°C° 0 mm 3 m/s 755 mmHg 78%
    22:00 +28°C° 0 mm 3 m/s 755 mmHg 80%
    23:00 +27°C° 0 mm 3 m/s 755 mmHg 82%

    21 Ianuarie, Luni

    Timp Temperatura Precipitaţii Vânt Presiune Umiditate
    00:00 +27°C° 0 mm 2 m/s 755 mmHg 83%
    01:00 +27°C° 0 mm 2 m/s 754 mmHg 85%
    02:00 +27°C° 0 mm 2 m/s 754 mmHg 86%
    03:00 +26°C° 0 mm 2 m/s 754 mmHg 88%
    04:00 +26°C° 0 mm 3 m/s 754 mmHg 89%
    05:00 +26°C° 0 mm 3 m/s 754 mmHg 88%
    06:00 +26°C° 0 mm 2 m/s 755 mmHg 88%
    07:00 +26°C° 0 mm 2 m/s 755 mmHg 88%
    08:00 +28°C° 0 mm 2 m/s 755 mmHg 79%
    09:00 +30°C° 0 mm 1 m/s 756 mmHg 70%
    10:00 +30°C° 0 mm 0 m/s 756 mmHg 60%
    11:00 +33°C° 0 mm 1 m/s 755 mmHg 57%
    12:00 +34°C° 0 mm 2 m/s 754 mmHg 54%
    13:00 +35°C° 0 mm 3 m/s 754 mmHg 51%
    14:00 +34°C° 0 mm 4 m/s 753 mmHg 53%
    15:00 +34°C° 0 mm 5 m/s 752 mmHg 55%
    16:00 +34°C° 0 mm 5 m/s 752 mmHg 58%
    17:00 +32°C° 0 mm 5 m/s 752 mmHg 63%
    18:00 +30°C° 0 mm 4 m/s 753 mmHg 67%
    19:00 +29°C° 0 mm 4 m/s 753 mmHg 72%
    20:00 +29°C° 0 mm 4 m/s 754 mmHg 75%
    21:00 +28°C° 0 mm 3 m/s 754 mmHg 77%
    22:00 +28°C° 0 mm 3 m/s 755 mmHg 79%
    23:00 +27°C° 0 mm 3 m/s 755 mmHg 80%

    22 Ianuarie, Marţi

    Timp Temperatura Precipitaţii Vânt Presiune Umiditate
    00:00 +27°C° 0 mm 3 m/s 754 mmHg 82%
    01:00 +27°C° 0 mm 3 m/s 754 mmHg 84%
    02:00 +27°C° 0 mm 3 m/s 754 mmHg 85%
    03:00 +26°C° 0 mm 3 m/s 753 mmHg 86%
    04:00 +26°C° 0 mm 3 m/s 753 mmHg 87%
    05:00 +26°C° 0 mm 3 m/s 754 mmHg 87%
    06:00 +26°C° 0 mm 2 m/s 754 mmHg 86%
    07:00 +26°C° 0 mm 2 m/s 755 mmHg 86%
    08:00 +28°C° 0 mm 2 m/s 755 mmHg 79%
    09:00 +29°C° 0 mm 2 m/s 755 mmHg 71%
    10:00 +31°C° 0 mm 1 m/s 755 mmHg 64%
    11:00 +32°C° 0 mm 2 m/s 754 mmHg 59%
    12:00 +34°C° 0 mm 3 m/s 754 mmHg 54%
    13:00 +35°C° 0 mm 4 m/s 753 mmHg 49%
    14:00 +34°C° 0 mm 4 m/s 752 mmHg 54%
    15:00 +34°C° 0 mm 5 m/s 752 mmHg 58%
    16:00 +33°C° 0 mm 6 m/s 752 mmHg 63%
    17:00 +32°C° 0 mm 5 m/s 752 mmHg 68%
    18:00 +30°C° 0 mm 5 m/s 752 mmHg 74%
    19:00 +28°C° 0 mm 4 m/s 753 mmHg 79%
    20:00 +28°C° 0 mm 4 m/s 753 mmHg 80%
    21:00 +28°C° 0 mm 4 m/s 754 mmHg 81%
    22:00 +27°C° 0 mm 3 m/s 754 mmHg 83%
    23:00 +27°C° 0 mm 3 m/s 754 mmHg 84%

    23 Ianuarie, Miercuri

    Timp Temperatura Precipitaţii Vânt Presiune Umiditate
    00:00 +27°C° 0 mm 3 m/s 754 mmHg 85%
    01:00 +27°C° 0 mm 3 m/s 754 mmHg 86%
    02:00 +26°C° 0 mm 3 m/s 753 mmHg 86%
    03:00 +26°C° 0 mm 3 m/s 753 mmHg 87%
    04:00 +26°C° 0 mm 2 m/s 753 mmHg 88%
    05:00 +26°C° 0 mm 2 m/s 754 mmHg 87%
    06:00 +26°C° 0 mm 2 m/s 754 mmHg 86%
    07:00 +26°C° 0 mm 2 m/s 754 mmHg 85%
    08:00 +28°C° 0 mm 2 m/s 755 mmHg 77%
    09:00 +30°C° 0 mm 1 m/s 755 mmHg 68%
    10:00 +32°C° 0 mm 1 m/s 755 mmHg 59%
    11:00 +32°C° 0 mm 2 m/s 754 mmHg 58%
    12:00 +33°C° 0 mm 3 m/s 754 mmHg 56%
    13:00 +34°C° 0 mm 4 m/s 753 mmHg 54%
    14:00 +33°C° 0 mm 4 m/s 752 mmHg 57%
    15:00 +33°C° 0 mm 5 m/s 752 mmHg 59%
    16:00 +32°C° 0 mm 5 m/s 751 mmHg 61%
    17:00 +30°C° 0 mm 5 m/s 752 mmHg 65%
    18:00 +29°C° 0 mm 5 m/s 752 mmHg 70%
    19:00 +28°C° 0 mm 4 m/s 752 mmHg 74%
    20:00 +28°C° 0 mm 4 m/s 753 mmHg 76%
    21:00 +28°C° 0 mm 3 m/s 753 mmHg 79%
    22:00 +27°C° 0 mm 3 m/s 754 mmHg 81%
    23:00 +27°C° 0 mm 3 m/s 753 mmHg 83%
    Arată mai mult